Location: Grand Rapids
(42.9630°N, 85.6680°W)
Time: 01:53:01
(UTC-04:00)

A-11 Canister half - Pass Details

Date: 01 June 2024
Orbit: 1524 x 1684 km, 47.3° (Epoch: 21 June)

Event Time Altitude Azimuth Distance (km) Brightness Sun altitude
Rises 23:08:41 0° 278° (W) 4,684 12.2 -16.0°
Reaches altitude 10° 23:11:45 10° 281° (W) 3,711 11.7 -16.3°
Maximum altitude 23:21:07 69° 4° (N) 1,659 9.3 -17.3°
Drops below altitude 10° 23:30:47 10° 88° (E) 3,820 10.8 -18.3°
Sets 23:33:58 0° 91° (E) 4,827 11.3 -18.6°
